Clearfield, PA

12:03 AM EST on February 07, 2016 (GMT -0500)
Clearfield-Lawrence

Weather History for KFIG - February, 2012

Change the Weather History Date:

Wednesday, February 29, 2012

  Actual Average (KDUJ) Record (KDUJ)
Temperature  
Mean Temperature 34 °F -  
Max Temperature 37 °F 39 °F 64 °F (1972)
Min Temperature 32 °F 21 °F -4 °F (1980)
Degree Days  
Heating Degree Days 30    
Moisture  
Dew Point 32 °F    
Average Humidity 88    
Maximum Humidity 100    
Minimum Humidity 50    
Precipitation  
Precipitation 0.81 in - - ()
Sea Level Pressure  
Sea Level Pressure 29.84 in    
Wind  
Wind Speed 7 mph (ENE)    
Max Wind Speed 10 mph    
Max Gust Speed -    
Visibility 4 miles    
Events Fog , Rain    
T = Trace of Precipitation, MM = Missing Value Source: NWS Daily Summary

Daily Weather History Graph

Daily Weather History Graph

Search for Another Location

Airport or City:

Trip Planner

Search our weather history database for the weather conditions in past years. The results will help you decide how hot, cold, wet, or windy it might be!

Date:

Astronomy

Feb. 29, 2012 Rise Set
Actual Time 6:48 AM EST 6:04 PM EST
Civil Twilight 6:21 AM EST 6:31 PM EST
Nautical Twilight 5:49 AM EST 7:03 PM EST
Astronomical Twilight 5:17 AM EST 7:35 PM EST
Moon 10:34 AM EST (2/29) 12:53 AM EST (2/29)
Length of Visible Light 12h 10m
Length of Day
11h 15m
Waxing Crescent, 47% of the Moon is Illuminated
Feb 29
Waxing Crescent
Feb 29
First Quarter
Mar 8
Full
Mar 14
Last Quarter
Mar 22
New

Hourly Weather History & Observations

Time (EST) Temp. Windchill Dew Point Humidity Pressure Visibility Wind Dir Wind Speed Gust Speed Precip Events Conditions
12:54 AM 35.1 °F 28.6 °F 19.9 °F 54% 30.24 in 10.0 mi NNE 8.1 mph - N/A   Overcast
1:54 AM 36.0 °F 29.0 °F 19.9 °F 52% 30.22 in 10.0 mi NE 9.2 mph - N/A   Overcast
2:54 AM 36.0 °F 28.5 °F 19.0 °F 50% 30.17 in 10.0 mi NE 10.4 mph - N/A   Overcast
3:54 AM 36.0 °F 28.5 °F 19.9 °F 52% 30.12 in 10.0 mi ENE 10.4 mph - N/A   Overcast
4:54 AM 36.0 °F 28.5 °F 19.9 °F 52% 30.11 in 10.0 mi ENE 10.4 mph - N/A   Overcast
5:54 AM 35.1 °F 28.6 °F 23.0 °F 61% 30.08 in 10.0 mi NE 8.1 mph - 0.00 in Rain Light Rain
6:54 AM 33.1 °F 26.9 °F 27.0 °F 78% 30.06 in 9.0 mi NE 6.9 mph - 0.05 in Rain Light Rain
7:54 AM 32.0 °F 24.2 °F 30.0 °F 92% 30.05 in 2.5 mi ENE 9.2 mph - 0.10 in Rain Light Freezing Rain
8:02 AM 32.0 °F 26.4 °F 30.2 °F 93% 30.02 in 4.0 mi NE 5.8 mph - 0.01 in Rain Light Freezing Rain
8:29 AM 32.0 °F 24.8 °F 30.2 °F 93% 30.02 in 2.0 mi NNE 8.1 mph - 0.09 in Rain Light Freezing Rain
8:38 AM 32.0 °F 26.4 °F 30.2 °F 93% 30.00 in 1.8 mi NE 5.8 mph - 0.12 in Rain Light Freezing Rain
8:54 AM 33.1 °F 26.1 °F 30.0 °F 89% 30.03 in 2.0 mi ENE 8.1 mph - 0.16 in Rain Light Freezing Rain
9:02 AM 33.8 °F 27.0 °F 30.2 °F 87% 29.99 in 1.5 mi NE 8.1 mph - 0.03 in Rain Light Freezing Rain
9:19 AM 33.8 °F 27.7 °F 30.2 °F 87% 29.97 in 1.5 mi NE 6.9 mph - 0.08 in Rain Light Freezing Rain
9:28 AM 33.8 °F 27.7 °F 30.2 °F 87% 29.97 in 1.8 mi NE 6.9 mph - 0.09 in Rain Rain
9:34 AM 33.8 °F 26.4 °F 30.2 °F 87% 29.96 in 1.8 mi NE 9.2 mph - 0.10 in Rain Rain
9:54 AM 33.1 °F 26.1 °F 30.9 °F 92% 29.98 in 1.5 mi NE 8.1 mph - 0.15 in Rain Rain
10:14 AM 33.8 °F 29.6 °F 32.0 °F 93% 29.92 in 2.5 mi East 4.6 mph - 0.02 in Rain Light Rain
10:24 AM 33.8 °F 29.6 °F 32.0 °F 93% 29.91 in 3.0 mi East 4.6 mph - 0.02 in Rain Light Rain
10:54 AM 35.1 °F 30.1 °F 32.0 °F 89% 29.95 in 3.0 mi ESE 5.8 mph - 0.02 in Rain Light Rain
11:04 AM 35.6 °F 30.7 °F 33.8 °F 93% 29.91 in 2.0 mi ESE 5.8 mph - 0.01 in Rain Rain
11:54 AM 35.1 °F 29.3 °F 33.1 °F 92% 29.93 in 2.0 mi ESE 6.9 mph - 0.07 in Rain Light Rain
12:21 PM 35.6 °F 30.7 °F 33.8 °F 93% 29.88 in 1.0 mi East 5.8 mph - 0.04 in Rain Heavy Rain
12:44 PM 35.6 °F 29.9 °F 33.8 °F 93% 29.85 in 3.0 mi East 6.9 mph - 0.14 in Rain Light Rain
12:54 PM 35.1 °F 31.0 °F 33.1 °F 92% 29.89 in 3.0 mi East 4.6 mph - 0.16 in Rain Rain
1:00 PM 35.6 °F 31.7 °F 33.8 °F 93% 29.86 in 2.5 mi East 4.6 mph - 0.02 in Rain Rain
1:10 PM 35.6 °F 29.9 °F 33.8 °F 93% 29.83 in 1.8 mi East 6.9 mph - 0.06 in Rain Heavy Rain
1:15 PM 35.6 °F 29.9 °F 33.8 °F 93% 29.83 in 3.0 mi East 6.9 mph - 0.07 in Rain Light Rain
1:30 PM 35.6 °F 31.7 °F 33.8 °F 93% 29.83 in 2.5 mi ENE 4.6 mph - 0.09 in Rain Light Rain
1:46 PM 35.6 °F 31.7 °F 33.8 °F 93% 29.83 in 3.0 mi East 4.6 mph - 0.10 in Rain Light Rain
1:54 PM 35.1 °F 31.0 °F 33.1 °F 92% 29.86 in 4.0 mi East 4.6 mph - 0.10 in Rain Light Rain
2:47 PM 35.6 °F 31.7 °F 33.8 °F 93% 29.77 in 2.5 mi NE 4.6 mph - 0.00 in   Overcast
2:54 PM 36.0 °F 31.1 °F 34.0 °F 93% 29.80 in 7.0 mi ENE 5.8 mph - 0.00 in   Overcast
3:54 PM 36.0 °F 31.1 °F 35.1 °F 97% 29.78 in 8.0 mi NE 5.8 mph - N/A   Overcast
4:28 PM 37.4 °F 32.8 °F 35.6 °F 93% 29.73 in 1.2 mi NE 5.8 mph - N/A   Overcast
4:39 PM 37.4 °F 32.8 °F 35.6 °F 93% 29.73 in 4.0 mi NE 5.8 mph - N/A   Overcast
4:54 PM 37.0 °F 33.3 °F 35.1 °F 93% 29.77 in 6.0 mi East 4.6 mph - N/A   Overcast
5:02 PM 37.4 °F 32.8 °F 35.6 °F 93% 29.73 in 6.0 mi NE 5.8 mph - N/A   Overcast
5:54 PM 37.0 °F 31.6 °F 35.1 °F 93% 29.75 in 8.0 mi East 6.9 mph - N/A   Overcast
6:36 PM 37.4 °F 30.8 °F 35.6 °F 93% 29.69 in 1.8 mi ENE 9.2 mph - N/A   Overcast
6:49 PM 37.4 °F 32.1 °F 35.6 °F 93% 29.70 in 3.0 mi ENE 6.9 mph - N/A   Overcast
6:54 PM 37.0 °F 31.6 °F 35.1 °F 93% 29.73 in 3.0 mi ENE 6.9 mph - N/A   Overcast
7:30 PM 37.4 °F 31.4 °F 35.6 °F 93% 29.67 in 1.8 mi NE 8.1 mph - N/A   Overcast
7:46 PM 37.4 °F 31.4 °F 35.6 °F 93% 29.67 in 3.0 mi ENE 8.1 mph - N/A   Overcast
7:54 PM 37.0 °F 32.4 °F 35.1 °F 93% 29.71 in 2.5 mi ENE 5.8 mph - N/A   Overcast
8:14 PM 37.4 °F 32.8 °F 35.6 °F 93% 29.65 in 3.0 mi ENE 5.8 mph - N/A   Overcast
8:16 PM 37.4 °F 32.8 °F 35.6 °F 93% 29.65 in 1.8 mi ENE 5.8 mph - N/A   Overcast
8:31 PM 37.4 °F 32.8 °F 35.6 °F 93% 29.64 in 3.0 mi ENE 5.8 mph - N/A   Overcast
8:38 PM 37.4 °F 32.8 °F 35.6 °F 93% 29.64 in 1.8 mi NE 5.8 mph - N/A   Overcast
9:52 PM 37.4 °F 32.8 °F 35.6 °F 93% 29.61 in 0.8 mi NNE 5.8 mph - N/A   Mist
9:54 PM 37.0 °F 33.3 °F 36.0 °F 96% 29.65 in 0.5 mi North 4.6 mph - N/A Fog Fog
10:06 PM 37.4 °F 32.1 °F 35.6 °F 93% 29.60 in 0.2 mi NNE 6.9 mph - N/A Fog Fog
10:31 PM 37.4 °F 32.8 °F 35.6 °F 93% 29.60 in 0.5 mi NE 5.8 mph - N/A Fog Fog
10:40 PM 37.4 °F 32.1 °F 37.4 °F 100% 29.59 in 0.2 mi NE 6.9 mph - N/A Fog Fog
10:54 PM 37.9 °F 32.1 °F 37.0 °F 97% 29.60 in 0.2 mi ENE 8.1 mph - N/A Fog Fog
11:54 PM 37.9 °F 32.7 °F 37.0 °F 97% 29.59 in 0.2 mi NE 6.9 mph - 0.00 in Fog Fog